sat.trackr.live / text

‹ back to catalog

STARLINK-35281

NORAD 65824 · 2025-221B

PAYLOAD ACTIVE UNKNOWN

§ Identity

Operator
Country
US
Launch date
2025-09-29
Launch site
AFWTR
Launch vehicle
Mass (kg)
RCS (m²)

Purposes: comms

External: N2YO · Heavens-Above · Gunter

§ Orbital elements

Epoch: 2026-05-25T03:27:53.535168Z

Period
94.11 min
Inclination
53.1575°
Eccentricity
0.0001210
Mean motion
15.30200324 rev/d
Perigee alt
474.4 km
Apogee alt
476.0 km
Semi-major
6,853.4 km
B*
5.8118e-4
RAAN
93.5982°
Arg perigee
85.8838°
Mean anomaly
274.2301°
Rev number
3,778

§ Raw data

STARLINK-352811 65824U 25221B   26145.14436962  .00016893  00000+0  58118-3 0  99922 65824  53.1575  93.5982 0001210  85.8838 274.2301 15.30200324 37787

JSON: /api/v1/satellites/65824 · /tle

For live sub-satellite position, see the globe view (requires WebGL).

§ Visibility from observer

Set your observer location to see the next 7 days of passes ≥ 10°. The values pass through the URL so the page stays shareable.

No JS? Fill the form by hand. The geolocation button needs JavaScript.